STARLINK-34797

Last updated on Tue Sep 16 2025 00:02:07 GMT+0000 (Coordinated Universal Time)

1 65363U 25190N 25257.41373649 .00059559 00000+0 57926-3 0 9992 2 65363 53.1579 270.7220 0002330 21.1574 338.9538 15.65735833 2718
UTC large
Height (km)
Speed (km/s)
/
Latitude / Longitude
Inclination (degrees)
Orbital Period (minutes)
Azimuth
Elevation
Range (km)
Doppler Factor

Next 0 passes for location: London (51.5072 / 0.1276)

Sorry there are no passes over London.